This is the latest recevied weather packets stored in our database for station/object K5YNC. If no packets are shown the sender has not sent any weather packets the latest 10 day(s).
| Time | Temp. | Humidity | Pressure | Rain* | Wind** | Luminosity | Snow |
|---|---|---|---|---|---|---|---|
| 1777935502 | 27.78° C | 58% | 1006.4 hPa | 0 mm | - | 101 W/m² | - |
| 1777935198 | 27.22° C | 59% | 1006.4 hPa | 0 mm | - | 96 W/m² | - |
| 1777934895 | 27.22° C | 58% | 1006.4 hPa | 0 mm | - | 112 W/m² | - |
| 1777934592 | 27.22° C | 59% | 1006.5 hPa | 0 mm | - | 112 W/m² | - |
| 1777934288 | 27.78° C | 59% | 1006.2 hPa | 0 mm | - | 88 W/m² | - |
| 1777933984 | 27.78° C | 58% | 1006.3 hPa | 0 mm | - | 85 W/m² | - |
| 1777933681 | 27.78° C | 58% | 1006.5 hPa | 0 mm | - | 92 W/m² | - |
| 1777933378 | 27.78° C | 58% | 1006.5 hPa | 0 mm | - | 94 W/m² | - |
| 1777933076 | 27.78° C | 58% | 1006.6 hPa | 0 mm | - | 108 W/m² | - |
| 1777932773 | 27.78° C | 58% | 1006.5 hPa | 0 mm | - | 103 W/m² | - |
| 1777932469 | 27.22° C | 58% | 1007 hPa | 0 mm | - | 121 W/m² | - |
| 1777932166 | 27.78° C | 58% | 1006.7 hPa | 0 mm | - | 337 W/m² | - |
| 1777931864 | 27.78° C | 58% | 1006.7 hPa | 0 mm | - | 418 W/m² | - |
| 1777931560 | 27.78° C | 57% | 1006.8 hPa | 0 mm | - | 422 W/m² | - |
| 1777931256 | 27.78° C | 57% | 1006.8 hPa | 0 mm | - | 477 W/m² | - |
| 1777930953 | 27.78° C | 59% | 1007.2 hPa | 0 mm | - | 465 W/m² | - |
| 1777930649 | 27.22° C | 58% | 1007.1 hPa | 0 mm | - | 527 W/m² | - |
| 1777930346 | 27.78° C | 57% | 1007.4 hPa | 0 mm | - | 485 W/m² | - |
| 1777930043 | 27.78° C | 57% | 1007.3 hPa | 0 mm | - | 518 W/m² | - |
| 1777929740 | 27.78° C | 56% | 1007.6 hPa | 0 mm | - | 544 W/m² | - |
| 1777929437 | 27.22° C | 57% | 1007.5 hPa | 0 mm | - | 545 W/m² | - |
| 1777929133 | 27.78° C | 57% | 1007.6 hPa | 0 mm | - | 560 W/m² | - |
| 1777928831 | 27.78° C | 57% | 1007.9 hPa | 0 mm | - | 561 W/m² | - |
| 1777928528 | 27.78° C | 57% | 1008 hPa | 0 mm | - | 618 W/m² | - |
| 1777928225 | 28.33° C | 56% | 1008 hPa | 0 mm | - | 602 W/m² | - |
* Rain latest hour (hover to see other rain measurements)
** Current wind speed in m/s (hover to see current wind gust speed)